Weather History for Rochester, MN

Change the Weather History Date:

Tuesday, September 25, 2012

  Actual Average Record
Temperature  
Mean Temperature 61 °F 57 °F  
Max Temperature 76 °F 68 °F 89 °F (1956)
Min Temperature 46 °F 46 °F 26 °F (1893)
Degree Days  
Heating Degree Days 4 9  
Month to date heating degree days 121 126  
Since 1 July heating degree days 145 164  
Cooling Degree Days 0 1  
Month to date cooling degree days 55 50  
Year to date cooling degree days 885 575  
Growing Degree Days 10 (Base 50)    
Moisture  
Dew Point 36 °F    
Average Humidity 46    
Maximum Humidity 71    
Minimum Humidity 21    
Precipitation  
Precipitation 0.00 in 0.11 in 3.17 in (2005)
Month to date precipitation 1.29 2.93  
Year to date precipitation 20.70 27.12  
Snow  
Snow 0.00 in 0.00 in 0.00 in (2012)
Month to date snowfall 0.0 0.0  
Since 1 July snowfall 0.0 0.0  
Snow Depth 0.00 in    
Sea Level Pressure  
Sea Level Pressure 29.86 in    
Wind  
Wind Speed 7 mph (NNW)    
Max Wind Speed 13 mph    
Max Gust Speed 18 mph    
Visibility 10 miles    
Events      
T = Trace of Precipitation, MM = Missing Value Source: NWS Daily Summary

Daily Weather History Graph

Daily Weather History Graph

Search for Another Location

Airport:

Trip Planner

Search our weather history database for the weather conditions in past years. The results will help you decide how hot, cold, wet, or windy it might be!

Date:

Astronomy

Sep. 25, 2012 Rise Set
Actual Time 7:01 AM CDT 7:00 PM CDT
Civil Twilight 6:32 AM CDT 7:29 PM CDT
Nautical Twilight 5:58 AM CDT 8:03 PM CDT
Astronomical Twilight 5:24 AM CDT 8:37 PM CDT
Moon 4:32 PM CDT (9/25) 2:15 AM CDT (9/25)
Length of Visible Light 12h 57m
Length of Day
11h 59m
Waxing Gibbous, 80% of the Moon is Illuminated
Sep 25
Waxing Gibbous
Sep 29
Full
Oct 8
Last Quarter
Oct 15
New
Oct 21
First Quarter

Hourly Weather History & Observations

Time (CDT) Temp. Dew Point Humidity Pressure Visibility Wind Dir Wind Speed Gust Speed Precip Events Conditions
12:54 AM 59.0 °F 37.0 °F 44% 29.79 in 10.0 mi WSW 11.5 mph - N/A   Clear
1:54 AM 57.9 °F 37.9 °F 47% 29.79 in 10.0 mi WSW 9.2 mph - N/A   Clear
2:54 AM 55.9 °F 37.9 °F 51% 29.79 in 10.0 mi WSW 10.4 mph - N/A   Clear
3:54 AM 54.0 °F 39.0 °F 57% 29.78 in 10.0 mi WSW 8.1 mph - N/A   Clear
4:54 AM 50.0 °F 37.9 °F 63% 29.79 in 10.0 mi West 6.9 mph - N/A   Clear
5:54 AM 48.0 °F 37.9 °F 68% 29.79 in 10.0 mi WNW 5.8 mph - N/A   Clear
6:54 AM 46.9 °F 37.9 °F 71% 29.81 in 10.0 mi WNW 6.9 mph - N/A   Clear
7:54 AM 48.0 °F 39.0 °F 71% 29.84 in 10.0 mi West 3.5 mph - N/A   Clear
8:54 AM 53.1 °F 39.9 °F 61% 29.86 in 10.0 mi NNW 4.6 mph - N/A   Clear
9:54 AM 59.0 °F 41.0 °F 51% 29.87 in 10.0 mi NNW 4.6 mph - N/A   Clear
10:54 AM 69.1 °F 41.0 °F 36% 29.88 in 10.0 mi NNW 8.1 mph - 0.01 in   Clear
11:54 AM 71.1 °F 39.9 °F 32% 29.88 in 10.0 mi North 10.4 mph - N/A   Clear
12:54 PM 72.0 °F 37.0 °F 28% 29.87 in 10.0 mi NNE 6.9 mph - N/A   Clear
1:54 PM 73.4 °F 35.6 °F 25% 29.87 in 10.0 mi North 10.4 mph - N/A   Clear
2:54 PM 75.0 °F 33.1 °F 22% 29.86 in 10.0 mi Variable 5.8 mph - N/A   Clear
3:54 PM 75.0 °F 34.0 °F 22% 29.86 in 10.0 mi North 10.4 mph - N/A   Clear
4:54 PM 73.9 °F 32.0 °F 21% 29.87 in 10.0 mi North 10.4 mph - N/A   Clear
5:54 PM 69.1 °F 35.1 °F 29% 29.88 in 10.0 mi North 8.1 mph - N/A   Clear
6:54 PM 63.0 °F 34.0 °F 34% 29.91 in 10.0 mi North 6.9 mph - N/A   Clear
7:54 PM 60.1 °F 33.1 °F 36% 29.93 in 10.0 mi North 5.8 mph - N/A   Clear
8:54 PM 57.0 °F 33.1 °F 40% 29.94 in 10.0 mi North 6.9 mph - N/A   Clear
9:54 PM 55.9 °F 33.1 °F 42% 29.95 in 10.0 mi North 5.8 mph - N/A   Clear
10:54 PM 53.1 °F 33.1 °F 47% 29.95 in 10.0 mi NNE 5.8 mph - N/A   Clear
11:54 PM 51.8 °F 33.8 °F 50% 29.94 in 10.0 mi NNE 5.8 mph - N/A   Clear